BAW449 LEIB-EGLL

Flight info

Callsign BAW449
Flight time N/A
Altitude 36000
Route EPAMA4F EPAMA N856 EBROX DCT UMURE DCT XIKEN DCT KARES DCT ARBEK DCT REBUL DCT USKAR DCT MOPAS DCT GIROM DCT AGN DCT SECHE DCT UVELI DCT CNA DCT MANAK UY110 UPALO/N0442F340 UY110 REVTU UP87 ROXOG ROXOG1H
Aircraft A320/M-SDE3FGIKRWXY/S

Departure

Time 2026-05-01 14:20
Airport Ibiza Airport (LEIB)

Arrival

Time N/A
Airport London Heathrow Airport (EGLL)
Time Latitude Longitude Altitude Speed Heading
2026-05-01 13:55 38.87652 1.37148 9 ft 0 kts 18°
2026-05-01 14:13 38.87654 1.37155 9 ft 1 kts 65°
2026-05-01 14:14 38.87649 1.37159 10 ft 1 kts 134°
2026-05-01 14:14 38.87624 1.37168 8 ft 5 kts 165°
2026-05-01 14:14 38.87589 1.37160 8 ft 6 kts 223°
2026-05-01 14:14 38.87565 1.37106 10 ft 8 kts 242°
2026-05-01 14:15 38.87530 1.37023 8 ft 12 kts 242°
2026-05-01 14:15 38.87487 1.36921 8 ft 14 kts 242°
2026-05-01 14:15 38.87442 1.36811 8 ft 12 kts 240°
2026-05-01 14:15 38.87367 1.36819 10 ft 13 kts 149°
2026-05-01 14:16 38.87289 1.36854 9 ft 10 kts 200°
2026-05-01 14:16 38.87248 1.36773 9 ft 12 kts 246°
2026-05-01 14:16 38.87206 1.36669 8 ft 14 kts 242°
2026-05-01 14:16 38.87157 1.36548 9 ft 16 kts 242°
2026-05-01 14:17 38.87100 1.36412 8 ft 18 kts 242°
2026-05-01 14:17 38.87041 1.36268 8 ft 14 kts 242°
2026-05-01 14:17 38.86991 1.36147 8 ft 16 kts 242°
2026-05-01 14:17 38.86936 1.36012 8 ft 18 kts 242°
2026-05-01 14:18 38.86883 1.35885 8 ft 15 kts 242°
2026-05-01 14:18 38.86816 1.35825 8 ft 13 kts 165°
2026-05-01 14:18 38.86739 1.35877 5 ft 13 kts 149°
2026-05-01 14:18 38.86710 1.35922 6 ft 10 kts 93°
2026-05-01 14:19 38.86743 1.36005 5 ft 13 kts 62°
2026-05-01 14:19 38.86875 1.36325 7 ft 74 kts 62°
2026-05-01 14:19 38.87208 1.37132 12 ft 128 kts 62°
2026-05-01 14:19 38.87682 1.38312 107 ft 161 kts 63°
2026-05-01 14:20 38.88179 1.39585 685 ft 160 kts 70°
2026-05-01 14:20 38.88716 1.42484 1597 ft 181 kts 75°
2026-05-01 14:20 38.89017 1.44118 2005 ft 195 kts 76°
2026-05-01 14:21 38.89339 1.45873 2407 ft 210 kts 76°
2026-05-01 14:21 38.89679 1.47740 2937 ft 218 kts 76°
2026-05-01 14:21 38.90023 1.49627 3696 ft 217 kts 75°
2026-05-01 14:22 38.90770 1.53401 5135 ft 224 kts 66°
2026-05-01 14:22 38.91599 1.55110 5660 ft 235 kts 44°
2026-05-01 14:22 38.92870 1.56591 6015 ft 258 kts 40°
2026-05-01 14:22 38.94284 1.58195 6556 ft 274 kts 41°
2026-05-01 14:23 38.95731 1.59846 7259 ft 281 kts 41°
2026-05-01 14:23 38.97203 1.61534 8031 ft 286 kts 41°
2026-05-01 14:23 38.98692 1.63243 8842 ft 288 kts 39°
2026-05-01 14:23 39.00364 1.64679 9623 ft 291 kts 24°
2026-05-01 14:24 39.02288 1.65500 10363 ft 293 kts
2026-05-01 14:24 39.04322 1.65794 11073 ft 296 kts
2026-05-01 14:24 39.06383 1.66061 11782 ft 299 kts
2026-05-01 14:24 39.08466 1.66246 12481 ft 302 kts 356°
2026-05-01 14:25 39.10554 1.65870 13090 ft 309 kts 344°
2026-05-01 14:25 39.12630 1.64868 13238 ft 330 kts 335°
2026-05-01 14:25 39.14802 1.63646 13418 ft 350 kts 335°
2026-05-01 14:25 39.17061 1.62374 13933 ft 358 kts 335°
2026-05-01 14:26 39.19361 1.61083 14507 ft 362 kts 335°
2026-05-01 14:26 39.24027 1.58464 15640 ft 370 kts 335°
2026-05-01 14:26 39.26398 1.57135 16204 ft 373 kts 335°
2026-05-01 14:27 39.28790 1.55796 16774 ft 377 kts 335°
2026-05-01 14:27 39.31207 1.54445 17342 ft 380 kts 335°
2026-05-01 14:27 39.33646 1.53079 17910 ft 384 kts 335°
2026-05-01 14:28 39.38588 1.50300 19041 ft 391 kts 335°
2026-05-01 14:28 39.41088 1.48892 19580 ft 394 kts 335°
2026-05-01 14:28 39.43609 1.47472 20129 ft 397 kts 335°
2026-05-01 14:28 39.46154 1.46036 20674 ft 400 kts 334°
2026-05-01 14:29 39.48714 1.44592 21208 ft 403 kts 334°
2026-05-01 14:29 39.51297 1.43137 21717 ft 406 kts 334°
2026-05-01 14:30 39.59218 1.38749 23167 ft 417 kts 340°
2026-05-01 14:30 39.62052 1.37834 23613 ft 422 kts 350°
2026-05-01 14:30 39.64985 1.37415 24012 ft 426 kts 353°
2026-05-01 14:31 39.70919 1.36642 24796 ft 430 kts 353°
2026-05-01 14:31 39.73905 1.36250 25178 ft 433 kts 353°
2026-05-01 14:31 39.76907 1.35851 25552 ft 435 kts 353°
2026-05-01 14:31 39.79924 1.35443 25921 ft 437 kts 353°
2026-05-01 14:32 39.82954 1.35033 26246 ft 440 kts 353°
2026-05-01 14:32 39.86013 1.34623 26581 ft 443 kts 353°
2026-05-01 14:32 39.89086 1.34213 26929 ft 445 kts 353°
2026-05-01 14:32 39.92171 1.33802 27281 ft 447 kts 353°
2026-05-01 14:33 39.95274 1.33387 27635 ft 449 kts 353°
2026-05-01 14:33 39.98388 1.32970 27990 ft 451 kts 353°
2026-05-01 14:33 40.01516 1.32552 28344 ft 453 kts 353°
2026-05-01 14:33 40.04656 1.32135 28699 ft 455 kts 353°
2026-05-01 14:34 40.07810 1.31714 29041 ft 457 kts 353°
2026-05-01 14:34 40.10978 1.31288 29375 ft 459 kts 353°
2026-05-01 14:34 40.14157 1.30860 29736 ft 460 kts 353°
2026-05-01 14:34 40.17219 1.30446 30204 ft 458 kts 352°
2026-05-01 14:35 40.20387 1.30022 30630 ft 457 kts 352°
2026-05-01 14:35 40.23543 1.29602 31035 ft 456 kts 352°
2026-05-01 14:35 40.26698 1.29178 31408 ft 456 kts 352°
2026-05-01 14:35 40.29854 1.28754 31760 ft 456 kts 352°
2026-05-01 14:36 40.33014 1.28331 32152 ft 456 kts 352°
2026-05-01 14:36 40.36205 1.27902 32565 ft 455 kts 352°
2026-05-01 14:36 40.39314 1.27480 32971 ft 454 kts 352°
2026-05-01 14:36 40.42494 1.27047 33388 ft 453 kts 352°
2026-05-01 14:37 40.45627 1.26617 33796 ft 452 kts 352°
2026-05-01 14:37 40.48754 1.26191 34209 ft 451 kts 352°
2026-05-01 14:37 40.51876 1.25767 34566 ft 450 kts 352°
2026-05-01 14:37 40.54989 1.25341 34913 ft 449 kts 352°
2026-05-01 14:38 40.58092 1.24914 35242 ft 448 kts 352°
2026-05-01 14:38 40.61190 1.24490 35579 ft 447 kts 352°
2026-05-01 14:38 40.64276 1.24069 35901 ft 446 kts 352°
2026-05-01 14:38 40.67358 1.23651 36158 ft 445 kts 352°
2026-05-01 14:39 40.70449 1.23233 36214 ft 449 kts 352°
2026-05-01 14:39 40.76702 1.22381 36225 ft 453 kts 352°
2026-05-01 14:40 40.82973 1.21520 36227 ft 453 kts 352°
2026-05-01 14:40 40.89250 1.20661 36230 ft 453 kts 352°
2026-05-01 14:41 40.95526 1.19800 36238 ft 454 kts 352°
2026-05-01 14:41 41.01807 1.18933 36250 ft 454 kts 352°
2026-05-01 14:42 41.08096 1.18063 36254 ft 454 kts 352°
2026-05-01 14:42 41.14389 1.17192 36257 ft 455 kts 351°
2026-05-01 14:43 41.20697 1.16435 36257 ft 456 kts 353°
2026-05-01 14:43 41.27022 1.15821 36258 ft 456 kts 354°
2026-05-01 14:44 41.33397 1.15201 36250 ft 456 kts 353°
2026-05-01 14:44 41.42888 1.14191 36246 ft 456 kts 353°
2026-05-01 14:45 41.52376 1.13192 36231 ft 456 kts 354°
2026-05-01 14:46 41.58697 1.12536 36236 ft 456 kts 354°
2026-05-01 14:46 41.68178 1.11528 36220 ft 455 kts 353°
2026-05-01 14:47 41.74489 1.10846 36209 ft 455 kts 353°
2026-05-01 14:48 41.83961 1.09835 36206 ft 455 kts 353°
2026-05-01 14:48 41.93428 1.08829 36188 ft 455 kts 354°
2026-05-01 14:49 42.06060 1.07475 36206 ft 455 kts 353°
2026-05-01 14:50 42.18683 1.06117 36223 ft 455 kts 354°
2026-05-01 14:51 42.27131 1.05209 36267 ft 455 kts 353°
2026-05-01 14:52 42.36595 1.04199 36265 ft 455 kts 353°
2026-05-01 14:53 42.46061 1.03162 36273 ft 455 kts 353°
2026-05-01 14:53 42.52368 1.02476 36272 ft 455 kts 353°
2026-05-01 14:54 42.58338 1.00953 36278 ft 449 kts 337°
2026-05-01 14:54 42.64361 0.98627 36267 ft 451 kts 344°
2026-05-01 14:55 42.70472 0.96642 36259 ft 451 kts 344°
2026-05-01 14:55 42.76574 0.94658 36261 ft 451 kts 344°
2026-05-01 14:56 42.82671 0.92617 36243 ft 450 kts 343°
2026-05-01 14:56 42.88789 0.90493 36238 ft 451 kts 343°
2026-05-01 14:57 42.94878 0.88374 36241 ft 451 kts 343°
2026-05-01 14:57 43.04007 0.85231 36238 ft 451 kts 343°
2026-05-01 14:58 43.10091 0.83136 36316 ft 451 kts 343°
2026-05-01 14:58 43.13126 0.82085 36663 ft 449 kts 343°
2026-05-01 14:58 43.16128 0.81045 36987 ft 447 kts 343°
2026-05-01 14:59 43.19142 0.79996 37279 ft 446 kts 343°
2026-05-01 14:59 43.22145 0.78951 37563 ft 445 kts 343°
2026-05-01 14:59 43.25140 0.77909 37835 ft 444 kts 343°
2026-05-01 14:59 43.28132 0.76870 38088 ft 443 kts 343°
2026-05-01 15:00 43.34112 0.74789 38195 ft 443 kts 343°
2026-05-01 15:00 43.37093 0.73751 38201 ft 443 kts 343°
2026-05-01 15:01 43.43067 0.71669 38200 ft 443 kts 343°
2026-05-01 15:01 43.49040 0.69582 38193 ft 443 kts 343°
2026-05-01 15:02 43.55011 0.67486 38190 ft 443 kts 343°
2026-05-01 15:02 43.60985 0.65382 38199 ft 443 kts 343°
2026-05-01 15:03 43.66928 0.63287 38206 ft 444 kts 343°
2026-05-01 15:03 43.72870 0.61196 38203 ft 444 kts 343°
2026-05-01 15:04 43.78906 0.59058 38202 ft 444 kts 343°
2026-05-01 15:04 43.84895 0.56935 38211 ft 445 kts 343°
2026-05-01 15:05 43.90892 0.54808 38207 ft 445 kts 343°
2026-05-01 15:05 43.96890 0.52677 38210 ft 445 kts 343°
2026-05-01 15:06 44.02893 0.50536 38219 ft 445 kts 343°
2026-05-01 15:06 44.08894 0.48388 38211 ft 446 kts 343°
2026-05-01 15:07 44.14912 0.46238 38210 ft 446 kts 343°
2026-05-01 15:07 44.20929 0.44082 38183 ft 447 kts 343°
2026-05-01 15:08 44.26948 0.41918 38187 ft 447 kts 343°
2026-05-01 15:08 44.32975 0.39739 38206 ft 447 kts 343°
2026-05-01 15:09 44.39003 0.37551 38208 ft 448 kts 343°
2026-05-01 15:09 44.45037 0.35372 38214 ft 448 kts 343°
2026-05-01 15:10 44.51124 0.33177 38211 ft 449 kts 343°
2026-05-01 15:10 44.60190 0.29873 38207 ft 449 kts 343°
2026-05-01 15:11 44.69262 0.26554 38207 ft 449 kts 343°
2026-05-01 15:12 44.75316 0.24343 38208 ft 450 kts 343°
2026-05-01 15:12 44.84403 0.21021 38207 ft 450 kts 343°
2026-05-01 15:14 44.99545 0.15439 38214 ft 450 kts 343°
2026-05-01 15:14 45.08630 0.12080 38204 ft 450 kts 343°
2026-05-01 15:15 45.20798 0.07570 38207 ft 451 kts 343°
2026-05-01 15:16 45.32939 0.03037 38203 ft 451 kts 343°
2026-05-01 15:18 45.48113 -0.02664 38201 ft 451 kts 343°
2026-05-01 15:19 45.60253 -0.07241 38197 ft 451 kts 343°
2026-05-01 15:19 45.69359 -0.10672 38192 ft 451 kts 343°
2026-05-01 15:20 45.78468 -0.14123 38206 ft 451 kts 343°
2026-05-01 15:21 45.84534 -0.16444 38201 ft 451 kts 343°
2026-05-01 15:21 45.90609 -0.18765 38201 ft 451 kts 343°
2026-05-01 15:22 45.99755 -0.22261 38212 ft 451 kts 343°
2026-05-01 15:22 46.04793 -0.24189 38211 ft 451 kts 343°
2026-05-01 15:23 46.10869 -0.26515 38210 ft 451 kts 343°
2026-05-01 15:23 46.16935 -0.28855 38216 ft 451 kts 342°
2026-05-01 15:24 46.22998 -0.31202 38211 ft 451 kts 342°
2026-05-01 15:24 46.29064 -0.33552 38209 ft 451 kts 342°
2026-05-01 15:25 46.35135 -0.35905 38208 ft 451 kts 342°
2026-05-01 15:25 46.41198 -0.38257 38209 ft 452 kts 342°
2026-05-01 15:26 46.47267 -0.40625 38207 ft 452 kts 342°
2026-05-01 15:26 46.53338 -0.43003 38210 ft 452 kts 342°
2026-05-01 15:27 46.59444 -0.45387 38218 ft 452 kts 342°
2026-05-01 15:28 46.68548 -0.48956 38215 ft 452 kts 342°
2026-05-01 15:28 46.74617 -0.51340 38213 ft 452 kts 342°
2026-05-01 15:29 46.83715 -0.54947 38209 ft 451 kts 342°
2026-05-01 15:30 46.95840 -0.59764 38206 ft 452 kts 342°
2026-05-01 15:31 47.14033 -0.67018 38203 ft 452 kts 342°
2026-05-01 15:32 47.26160 -0.71881 38207 ft 452 kts 342°
2026-05-01 15:34 47.44397 -0.79235 38202 ft 452 kts 342°